Location: Kelshall
(52.0000°N, 0.0500°W)
Time: 08:24:22
(UTC+00:00)

Meteor 1-15 Rocket - Pass Details

Date: 25 January 2021
Orbit: 840 x 907 km, 81.2° (Epoch: 24 February)

Event Time Altitude Azimuth Distance (km) Brightness Sun altitude
Exits shadow 05:28:26 16° 336° (NNW) 2,155 6.1 -21.5°
Drops below altitude 10° 05:30:04 10° 351° (N) 2,534 6.5 -21.3°
Sets 05:33:13 0° 7° (N) 3,490 7.4 -20.8°
